Wind_Speed
12 12 13 12 13 13 11 11 11 11 11 10 10 10 10 9 9 8 8 8 8 7 8 8 8 8 8 9 9 9 9 8 7 8 8 7 7 6 5 5 4 5 5 5 5 4 4 3 2
11 12 12 13 14 12 11 11 12 12 12 11 10 10 10 9 9 8 8 8 7 8 8 8 8 8 9 9 8 9 8 8 7 7 7 7 6 6 5 4 4 3 3 4 4 3 3 3 2
11 12 11 12 13 12 11 12 12 12 12 11 11 10 10 9 9 8 7 8 8 7 7 7 7 8 8 8 8 8 8 7 7 7 7 6 6 5 4 4 4 2 2 2 3 3 3 2 2
12 11 11 12 11 10 11 11 11 12 12 11 11 10 10 9 8 8 8 8 8 7 7 7 7 8 8 9 8 8 8 7 7 6 6 6 5 5 4 3 3 2 2 2 2 2 1 1 1
12 12 13 11 10 10 10 10 10 11 11 11 11 11 10 9 8 8 8 8 7 7 8 7 7 8 9 9 9 8 7 7 6 6 5 5 5 4 3 2 2 2 2 2 1 1 1 1 1
12 13 12 11 10 10 10 10 10 10 10 10 10 10 9 9 9 8 8 8 8 8 8 8 8 9 10 9 9 8 7 7 6 5 4 4 4 3 3 2 2 1 1 1 1 1 0 1 1
12 12 12 11 10 10 10 10 10 10 10 11 10 10 9 9 9 9 9 9 8 8 8 9 9 9 10 9 8 8 7 6 5 5 4 4 3 3 2 2 2 1 1 0 0 0 0 1 1
10 11 11 10 10 10 10 10 10 11 11 10 10 11 10 10 9 9 9 9 8 8 8 9 9 9 9 9 8 7 7 6 5 4 3 3 3 2 2 1 2 2 1 1 1 0 0 1 1
9 10 9 10 10 10 10 11 10 11 10 10 10 10 10 9 9 9 9 9 8 9 9 9 9 9 9 8 8 7 6 5 4 3 3 3 2 1 1 1 1 2 1 1 1 1 1 1 1
9 9 9 9 9 10 11 11 11 11 10 9 10 10 10 10 9 9 8 8 9 9 9 10 9 9 8 8 8 6 5 5 4 4 3 3 3 2 2 2 2 2 2 1 1 0 1 1 1
9 9 9 9 9 9 10 10 10 10 9 9 9 9 10 10 9 8 8 8 8 9 9 9 8 8 8 7 7 6 5 5 5 5 4 3 3 3 3 2 3 2 2 1 1 0 1 1 2
8 8 8 9 9 9 9 10 10 9 9 8 8 9 9 10 9 9 8 8 8 9 8 8 7 7 7 6 6 5 5 5 5 4 4 3 2 2 2 3 2 2 1 1 1 1 1 2 2
7 7 8 8 8 8 8 9 9 9 8 8 8 8 9 9 8 8 8 7 8 7 6 5 6 6 6 5 5 4 4 4 3 3 4 3 2 2 2 3 2 2 1 1 2 2 2 2 2
6 6 5 6 7 6 7 7 8 8 7 7 7 7 7 7 7 6 6 6 6 5 4 4 5 5 5 5 5 4 3 3 2 3 3 3 3 2 2 2 2 2 2 2 2 2 3 3 3
5 4 4 5 5 5 5 6 6 7 7 7 7 6 5 5 5 5 4 4 4 3 3 3 4 4 4 4 4 3 2 2 2 2 2 3 3 3 3 2 2 3 2 2 2 3 3 4 4
5 4 2 2 3 3 4 4 4 5 6 5 5 5 4 4 4 4 4 4 3 3 3 3 3 3 3 3 2 2 2 2 2 2 3 3 3 4 3 4 4 3 3 3 3 4 5 5 5
4 4 3 2 2 2 2 2 2 3 4 3 3 3 3 3 3 3 3 3 2 3 3 2 2 2 2 2 3 2 2 3 3 3 3 3 3 3 3 3 4 4 4 4 4 5 6 6 5
7 6 4 3 2 2 1 1 2 2 2 2 2 2 3 2 2 2 2 1 1 2 2 2 2 2 2 2 3 3 3 3 3 3 3 3 3 4 3 4 4 4 4 4 5 6 6 5 6
8 7 6 5 4 3 2 1 2 2 2 2 2 2 2 2 2 2 1 1 1 1 1 1 1 1 2 3 3 3 3 3 3 3 3 3 4 4 4 5 5 5 5 5 6 7 7 6 6
8 8 7 6 5 4 3 2 2 1 2 3 2 2 2 2 2 1 0 1 1 1 1 1 1 2 2 3 3 3 4 4 4 4 4 4 5 5 5 6 6 6 6 7 7 8 8 8 8
9 9 9 8 6 4 2 2 3 2 2 3 3 3 3 3 4 3 3 2 1 1 2 2 2 3 3 4 4 4 5 5 4 4 5 6 6 6 6 7 7 7 7 7 8 9 9 9 10
10 10 10 8 7 6 4 4 4 3 4 4 4 5 4 5 5 5 4 3 3 3 3 3 3 4 4 5 5 5 6 6 6 6 7 7 7 7 8 8 8 8 8 9 9 9 10 10 10
13 12 11 10 9 8 7 6 7 5 5 5 5 5 5 5 5 5 5 5 5 5 5 5 5 5 6 6 6 7 7 7 8 8 9 9 8 8 9 9 9 10 10 10 10 11 11 11 11
14 12 11 10 9 10 10 8 8 8 7 7 8 7 7 7 7 7 7 7 7 7 7 7 7 7 7 8 8 9 9 9 9 10 10 10 10 10 10 11 11 11 11 11 12 12 12 12 12
15 13 11 11 10 11 12 11 11 11 9 9 9 9 9 8 8 8 9 9 9 9 10 9 9 9 9 9 10 10 11 11 11 11 11 11 12 12 12 12 13 13 13 13 13 13 13 14 13
16 14 14 12 11 11 13 12 12 12 11 11 10 10 11 11 10 10 10 11 11 11 11 11 11 12 11 12 12 12 12 12 12 12 12 13 13 14 14 14 14 14 14 15 14 14 15 15 15
18 16 15 14 14 13 13 14 13 12 13 13 12 12 13 13 13 12 12 13 13 13 13 13 13 13 13 13 14 13 13 13 13 13 13 14 14 15 15 16 16 16 16 16 16 16 17 17 17
19 18 18 16 16 14 14 14 14 14 14 14 14 14 13 14 14 14 14 14 15 14 14 14 15 15 15 15 15 14 14 15 15 15 15 15 16 16 17 18 18 18 18 17 17 17 17 18 18
20 20 19 18 17 15 15 15 16 15 15 15 15 14 14 14 15 16 17 16 16 16 16 16 16 16 16 17 16 16 16 16 16 16 16 17 17 18 19 19 18 18 18 18 18 19 19 18 18
21 21 20 19 19 18 16 16 18 16 15 15 15 15 15 16 16 17 17 17 17 17 18 18 18 18 18 19 18 18 18 18 18 18 18 18 18 19 19 19 19 19 20 20 20 19 19 19 19
Wind_Direction
83 83 81 81 79 76 78 81 85 85 84 86 88 93 98 103 106 106 109 112 110 112 117 119 128 131 133 134 134 134 134 134 132 129 128 126 123 120 111 102 95 97 92 99 109 106 106 117 123
84 82 81 79 78 82 81 83 85 87 84 84 88 92 97 102 104 104 107 113 112 110 113 118 128 133 133 135 137 137 136 136 135 130 127 127 122 118 114 101 93 99 95 97 104 112 108 99 109
84 82 81 79 77 82 86 84 85 86 82 84 86 89 94 97 102 103 106 110 109 107 107 118 125 132 136 135 139 144 141 138 131 126 123 118 115 113 115 111 101 102 95 104 107 111 118 105 116
84 83 79 77 78 84 87 85 83 84 81 82 85 86 87 92 95 101 104 106 104 102 103 110 124 133 135 136 138 144 142 138 134 127 120 115 110 104 104 115 114 106 102 109 122 129 136 123 173
85 83 77 75 76 80 86 85 82 80 80 81 82 82 83 89 93 96 99 101 103 102 105 107 124 132 134 134 140 141 141 139 135 127 120 113 109 107 100 99 106 107 107 127 140 147 200 204 211
86 82 81 78 77 78 82 83 80 81 82 82 82 81 83 88 91 91 96 98 101 101 105 111 119 125 131 131 135 139 136 137 133 126 122 113 99 99 97 92 99 104 101 129 124 156 231 216 215
91 87 83 79 77 76 79 78 77 80 83 81 83 82 82 89 93 96 97 100 101 99 102 105 113 123 125 126 128 134 131 123 122 118 110 103 93 92 89 88 85 99 90 98 182 194 208 208 213
95 88 81 79 73 74 79 78 77 80 82 80 81 81 82 87 94 95 97 100 101 101 102 105 110 115 118 118 121 129 127 120 108 100 93 93 91 95 89 88 94 101 88 34 16 25 19 263 236
99 88 85 82 75 77 83 81 77 82 82 79 80 80 80 86 93 96 97 100 102 104 103 105 104 108 112 115 117 120 117 112 98 91 82 86 93 95 98 96 114 117 91 63 12 295 298 299 267
101 96 94 86 82 82 80 75 75 81 82 82 81 78 77 86 92 96 95 97 102 107 108 107 103 105 110 113 114 111 105 103 94 84 85 89 91 90 89 81 110 121 102 77 46 348 319 326 298
105 104 100 92 86 83 77 69 71 76 76 79 80 80 79 81 87 95 96 98 106 111 114 112 106 107 113 114 112 106 100 94 90 87 88 94 93 88 90 92 105 115 110 85 47 15 324 328 311
110 106 104 97 90 84 74 67 67 72 75 78 79 79 79 76 80 90 93 97 109 114 116 114 108 104 107 108 105 99 100 94 86 72 62 63 71 76 76 87 94 96 93 78 355 331 319 313 313
117 115 108 101 93 86 74 68 68 66 68 73 74 75 76 77 77 86 92 94 102 108 110 109 104 102 101 105 105 97 98 91 77 61 50 49 52 59 58 50 53 37 9 327 316 309 306 302 300
132 120 112 104 95 86 74 71 72 67 66 65 66 67 69 74 73 76 86 94 98 100 102 104 115 112 108 109 104 98 98 80 70 59 50 42 29 16 21 36 17 356 345 329 316 304 304 304 306
138 130 113 114 104 89 78 68 68 68 67 66 60 60 63 63 70 68 71 79 83 85 87 86 105 110 109 107 102 100 84 50 40 38 34 24 12 7 12 4 352 349 352 334 313 295 291 299 298
150 128 127 126 110 98 85 61 55 69 62 63 57 53 55 53 65 55 56 68 71 76 69 73 81 88 105 92 72 75 54 20 8 9 12 8 5 359 359 353 342 341 336 320 310 308 289 290 292
175 170 181 188 150 118 93 67 39 52 52 58 59 54 52 57 55 52 55 56 66 68 63 57 66 75 75 53 45 49 39 23 13 9 9 1 355 352 349 348 342 333 326 318 306 306 290 281 283
205 200 208 213 194 170 116 28 5 33 49 55 45 50 41 49 50 47 49 38 54 65 55 54 68 62 43 27 26 23 10 2 360 352 353 359 358 348 342 336 335 341 332 317 308 301 298 286 290
208 213 222 223 201 190 190 288 316 357 4 23 40 43 37 22 16 35 73 58 44 41 22 40 59 32 17 6 359 0 352 343 341 334 327 335 338 337 328 320 318 320 318 315 317 309 307 295 297
214 218 224 222 220 215 219 245 303 335 357 2 6 15 357 351 342 339 346 17 15 13 359 334 325 331 334 332 328 331 332 329 330 328 317 318 324 329 328 323 317 315 313 308 309 311 309 300 299
221 220 220 223 228 243 241 276 292 296 311 333 339 339 333 333 321 314 308 301 310 328 328 320 309 305 306 311 312 317 319 318 319 312 309 307 311 317 319 320 321 319 314 309 306 306 302 297 296
224 223 218 221 234 246 245 273 283 287 298 298 308 314 317 319 315 307 297 291 287 297 304 305 306 307 305 301 305 309 310 310 308 303 303 303 304 306 307 310 313 313 310 308 306 305 305 304 301
233 231 229 227 233 242 248 254 268 272 277 281 287 295 298 306 307 303 293 290 283 284 290 292 289 294 302 301 300 301 304 302 300 299 296 295 297 299 303 305 305 304 306 306 305 303 301 302 303
235 235 238 242 244 251 251 253 263 268 270 275 279 284 282 293 299 295 288 284 282 280 279 282 283 288 294 296 297 299 302 301 296 295 294 293 296 296 297 300 302 301 301 303 302 299 297 299 301
235 236 245 252 254 261 257 253 255 259 267 273 277 277 279 284 291 288 286 280 276 276 274 276 281 284 287 288 291 295 298 298 298 294 293 295 291 290 293 298 299 297 297 298 298 296 296 298 298
235 234 240 248 254 264 262 258 257 257 263 269 273 275 278 279 284 284 284 281 276 274 274 278 285 285 285 285 287 289 292 295 296 295 295 294 290 288 289 293 295 296 297 297 296 295 294 295 295
235 235 240 248 254 258 262 264 267 263 261 266 271 273 275 275 277 280 282 282 280 277 277 281 286 289 290 289 289 288 288 290 291 294 293 292 291 290 289 291 292 294 294 293 292 293 292 291 293
236 239 242 245 251 255 263 267 267 264 264 267 268 269 272 272 273 276 282 280 278 278 279 281 285 288 289 290 289 289 289 289 288 289 289 290 291 291 289 289 291 291 290 290 290 290 289 290 291
239 240 243 247 249 253 260 267 265 265 266 266 264 265 267 271 274 277 279 277 277 279 279 280 283 284 285 284 283 283 285 286 289 288 288 290 291 292 290 288 288 289 290 291 294 296 289 290 292
241 242 244 248 253 257 258 267 270 267 266 264 263 265 267 268 271 274 275 276 276 277 279 281 283 284 284 284 283 281 283 284 286 287 289 291 292 291 290 289 289 290 290 291 292 294 291 291 292
Height
5897 5896 5896 5897 5897 5896 5894 5894 5892 5891 5891 5890 5889 5888 5888 5888 5889 5890 5888 5886 5886 5885 5885 5885 5885 5885 5886 5886 5887 5887 5888 5889 5889 5889 5889 5889 5890 5890 5890 5890 5890 5889 5889 5888 5889 5890 5890 5891 5891
5898 5898 5899 5899 5898 5898 5897 5895 5894 5892 5892 5891 5890 5889 5889 5888 5888 5888 5887 5887 5886 5885 5885 5885 5885 5885 5886 5886 5888 5888 5889 5889 5890 5890 5890 5890 5890 5890 5890 5890 5890 5890 5890 5890 5890 5890 5891 5891 5891
5899 5899 5901 5900 5899 5899 5898 5896 5895 5894 5893 5892 5891 5890 5890 5889 5889 5888 5888 5887 5887 5886 5885 5884 5884 5885 5886 5887 5888 5889 5889 5890 5890 5890 5891 5891 5891 5891 5891 5891 5890 5890 5890 5890 5890 5891 5891 5891 5891
5901 5902 5902 5902 5901 5900 5899 5897 5896 5895 5894 5893 5893 5892 5891 5890 5890 5889 5889 5888 5887 5886 5884 5883 5882 5884 5885 5887 5888 5889 5890 5890 5891 5891 5891 5891 5891 5891 5891 5890 5890 5890 5890 5891 5891 5891 5891 5891 5891
5903 5903 5904 5903 5902 5901 5900 5898 5897 5896 5895 5895 5894 5893 5892 5891 5891 5890 5889 5889 5888 5886 5885 5883 5882 5883 5885 5887 5889 5890 5890 5891 5892 5892 5892 5891 5891 5891 5891 5890 5890 5890 5890 5890 5891 5891 5891 5891 5891
5905 5905 5906 5905 5904 5902 5901 5900 5899 5898 5897 5896 5895 5894 5893 5892 5892 5891 5890 5890 5889 5887 5886 5884 5882 5883 5886 5888 5890 5891 5891 5892 5892 5892 5892 5892 5892 5891 5891 5890 5890 5890 5890 5890 5890 5891 5891 5891 5891
5907 5907 5907 5907 5905 5904 5902 5901 5900 5899 5898 5897 5896 5895 5894 5893 5893 5892 5892 5891 5890 5889 5888 5886 5886 5886 5888 5890 5891 5892 5892 5893 5893 5893 5892 5892 5892 5891 5891 5890 5890 5890 5890 5890 5890 5890 5890 5890 5890
5908 5909 5909 5908 5907 5905 5904 5902 5901 5900 5899 5899 5898 5897 5896 5895 5894 5894 5893 5892 5892 5891 5891 5890 5890 5890 5891 5892 5892 5893 5893 5893 5893 5893 5893 5892 5892 5891 5890 5890 5889 5889 5890 5890 5890 5890 5890 5890 5890
5909 5911 5910 5909 5908 5907 5905 5904 5903 5902 5901 5900 5899 5898 5897 5896 5896 5895 5895 5894 5894 5893 5893 5893 5892 5893 5893 5893 5893 5894 5894 5894 5894 5893 5893 5892 5892 5891 5890 5889 5888 5889 5889 5890 5890 5890 5890 5890 5890
5910 5912 5911 5910 5910 5909 5907 5906 5904 5903 5903 5902 5901 5900 5899 5898 5897 5897 5896 5896 5895 5895 5895 5894 5894 5894 5894 5894 5894 5895 5895 5894 5894 5894 5893 5892 5892 5891 5889 5888 5888 5888 5889 5889 5890 5890 5890 5890 5889
5911 5912 5912 5911 5911 5910 5909 5907 5906 5905 5904 5904 5903 5902 5900 5899 5899 5898 5898 5897 5897 5897 5896 5896 5896 5896 5896 5896 5896 5896 5896 5895 5895 5894 5894 5893 5892 5891 5890 5889 5888 5888 5889 5889 5889 5889 5890 5889 5889
5912 5912 5912 5912 5912 5911 5910 5909 5908 5907 5906 5905 5904 5903 5902 5901 5901 5900 5900 5899 5898 5898 5898 5898 5898 5898 5898 5897 5897 5897 5897 5896 5896 5895 5894 5894 5893 5892 5891 5890 5889 5889 5889 5890 5890 5890 5889 5889 5888
5913 5914 5913 5913 5913 5912 5912 5911 5909 5908 5908 5906 5905 5905 5904 5903 5903 5902 5902 5901 5900 5900 5900 5899 5899 5899 5899 5899 5898 5898 5898 5897 5897 5896 5895 5894 5893 5893 5892 5891 5891 5890 5890 5890 5890 5890 5889 5889 5888
5914 5914 5914 5914 5914 5914 5913 5912 5911 5910 5909 5908 5907 5906 5905 5904 5904 5904 5903 5902 5902 5902 5901 5901 5900 5900 5900 5899 5899 5899 5898 5898 5897 5896 5895 5894 5894 5893 5892 5892 5891 5890 5890 5890 5890 5889 5889 5888 5888
5915 5916 5916 5916 5915 5915 5915 5914 5913 5911 5910 5909 5908 5907 5906 5905 5905 5905 5904 5904 5903 5902 5902 5901 5901 5901 5900 5900 5900 5899 5899 5898 5898 5897 5896 5895 5894 5894 5893 5892 5891 5891 5890 5889 5889 5889 5888 5888 5887
5916 5917 5918 5917 5916 5916 5917 5916 5914 5912 5911 5910 5909 5908 5907 5906 5905 5905 5905 5904 5904 5904 5903 5902 5902 5901 5901 5901 5900 5900 5899 5899 5898 5897 5896 5895 5894 5894 5893 5892 5891 5890 5890 5889 5889 5888 5887 5887 5886
5917 5918 5918 5918 5917 5916 5916 5916 5915 5913 5912 5911 5910 5909 5908 5907 5906 5906 5906 5905 5905 5904 5904 5903 5903 5902 5902 5901 5901 5900 5899 5898 5898 5897 5896 5895 5894 5893 5893 5892 5891 5890 5889 5888 5888 5887 5886 5886 5885
5917 5918 5918 5918 5917 5917 5916 5916 5915 5914 5913 5912 5911 5910 5909 5908 5907 5907 5906 5906 5905 5905 5904 5904 5903 5903 5902 5902 5901 5900 5899 5899 5897 5896 5895 5895 5894 5893 5892 5891 5890 5889 5889 5888 5887 5886 5885 5884 5884
5915 5916 5917 5917 5916 5917 5916 5916 5915 5914 5913 5912 5911 5910 5910 5909 5908 5907 5907 5906 5906 5905 5905 5904 5903 5903 5902 5902 5901 5900 5899 5898 5897 5896 5895 5894 5893 5892 5891 5890 5889 5889 5888 5887 5886 5885 5884 5883 5882
5913 5915 5916 5916 5915 5916 5916 5916 5915 5914 5913 5913 5912 5911 5910 5910 5909 5908 5907 5907 5906 5906 5905 5904 5904 5903 5902 5902 5901 5900 5899 5898 5897 5896 5895 5894 5893 5892 5890 5889 5888 5887 5887 5886 5885 5884 5883 5882 5881
5912 5913 5914 5914 5915 5915 5915 5916 5915 5914 5913 5913 5912 5911 5910 5910 5909 5908 5907 5907 5906 5906 5905 5905 5904 5903 5902 5901 5900 5899 5898 5897 5896 5895 5894 5893 5892 5891 5890 5888 5887 5886 5885 5884 5883 5882 5881 5880 5879
5911 5911 5912 5912 5913 5915 5915 5916 5915 5913 5913 5912 5911 5911 5910 5910 5909 5908 5907 5907 5906 5906 5905 5904 5903 5902 5901 5900 5900 5899 5897 5896 5895 5894 5893 5892 5890 5889 5888 5887 5886 5885 5884 5883 5881 5881 5880 5878 5877
5908 5909 5910 5910 5911 5913 5913 5914 5915 5912 5912 5911 5910 5910 5909 5909 5908 5907 5907 5906 5905 5905 5904 5903 5902 5901 5900 5899 5898 5897 5896 5894 5893 5892 5891 5890 5889 5888 5887 5886 5884 5883 5882 5881 5880 5879 5878 5876 5875
5905 5907 5908 5908 5910 5911 5912 5912 5913 5912 5910 5910 5909 5909 5908 5908 5907 5906 5906 5905 5904 5903 5903 5902 5901 5900 5899 5898 5896 5895 5894 5893 5891 5890 5889 5887 5886 5885 5884 5884 5882 5881 5880 5879 5878 5877 5875 5874 5873
5902 5905 5907 5908 5908 5909 5909 5909 5910 5909 5908 5908 5907 5907 5906 5906 5905 5905 5904 5903 5902 5901 5900 5900 5899 5898 5897 5896 5894 5893 5892 5890 5889 5888 5886 5885 5884 5883 5882 5881 5880 5879 5877 5876 5875 5874 5873 5871 5870
5899 5902 5905 5906 5907 5907 5905 5905 5907 5905 5905 5905 5904 5904 5904 5904 5903 5903 5902 5901 5900 5899 5898 5897 5897 5896 5894 5893 5892 5891 5889 5888 5886 5885 5884 5882 5881 5880 5879 5878 5877 5876 5874 5873 5872 5870 5869 5868 5867
5895 5897 5900 5902 5902 5904 5903 5902 5902 5902 5902 5902 5901 5901 5901 5901 5900 5900 5899 5898 5897 5897 5896 5895 5894 5893 5892 5890 5889 5888 5886 5885 5884 5882 5881 5880 5878 5877 5876 5875 5874 5872 5871 5869 5868 5867 5866 5864 5863
5891 5893 5896 5897 5898 5900 5900 5900 5900 5898 5898 5898 5898 5897 5897 5897 5897 5897 5896 5895 5894 5893 5893 5892 5891 5890 5889 5887 5886 5884 5883 5882 5880 5879 5877 5876 5875 5873 5872 5871 5870 5868 5866 5865 5864 5862 5861 5860 5858
5887 5889 5890 5892 5894 5896 5897 5899 5895 5894 5894 5894 5894 5894 5894 5894 5893 5893 5892 5891 5890 5889 5889 5888 5887 5886 5885 5883 5882 5880 5879 5878 5877 5875 5873 5872 5871 5869 5868 5866 5865 5864 5862 5861 5859 5858 5856 5855 5854
5881 5883 5886 5888 5888 5890 5892 5895 5890 5890 5890 5890 5890 5889 5890 5889 5889 5888 5888 5887 5886 5885 5884 5884 5883 5882 5880 5879 5877 5876 5875 5874 5872 5871 5869 5868 5866 5865 5863 5862 5860 5859 5858 5856 5854 5853 5851 5850 5848